[[{"header":{"parameterUnit":"m.s-1","parameterCategory":1,"la1":30.2991,"la2":30.254,"lo1":-89.0895,"lo2":-89.0444,"dy":0.0017,"dx":0.0017,"nx":28,"ny":28,"refTime":"2025-05-27T09:00:00:Z","depth":0,"parameterNumber":2,"parameterNumberName":"U-component_of_WINDS"},"data":[0,0,0,0,0,0,0,0,0,0,0,0,0,0,0,0,0,0,0,0,0,0,0,0,0,0,0,0,0,0,0,0,0,0,0,0,0,0,0,0,0,0,0,0,0,0,0,0,0,0,0,0,0,0,0,0,0,0,2.5769,2.577,0,2.5916,2.5918,2.5919,2.5915,2.5913,2.5911,2.5909,2.6062,2.6068,2.6074,0,0,0,0,0,0,0,0,0,0,0,0,0,2.5484,2.5489,2.5768,2.577,2.5772,2.5916,2.5918,2.592,2.5916,2.5913,2.5911,2.5908,2.606,2.6067,2.6074,0,0,0,0,0,0,0,0,0,0,0,0,0,2.5617,2.5491,2.5768,2.5787,2.5791,2.5915,2.5918,2.592,2.5916,2.5913,2.591,2.5907,2.6058,2.6067,2.6075,2.6191,0,0,2.6103,2.6107,0,0,0,0,0,0,0,0,2.561,2.5628,2.5783,2.5786,2.579,2.5894,2.5874,2.6011,2.5917,2.5869,2.5909,2.5906,2.6009,2.6022,2.6056,2.6198,2.6205,2.6103,2.6109,2.6113,2.6115,0,0,0,0,0,0,0,2.5601,2.5621,2.5827,2.5785,2.5789,2.5789,2.5804,2.59,2.5954,2.5873,2.5873,2.589,2.601,2.6047,2.606,2.6207,2.6103,2.6111,2.6117,2.612,2.6451,2.6454,0,0,0,0,0,0,2.5587,2.5614,2.5822,2.5831,2.5691,2.5796,2.5814,2.5864,2.5953,2.5964,2.5892,2.5889,2.6034,2.6049,2.6065,2.6205,2.6113,2.6121,2.6126,2.6447,2.6451,2.6455,0,0,0,0,0,0,2.5581,2.5606,2.5816,2.5723,2.5749,2.5805,2.5861,2.5868,2.5905,2.5968,2.5978,2.592,2.6032,2.6052,2.6159,2.621,2.6125,2.6133,2.6443,2.6448,2.6453,2.6487,0,0,0,0,0,0,2.5573,2.5604,2.5648,2.5724,2.5754,2.5908,2.5864,2.5873,2.5921,2.5918,2.5997,2.6007,2.6031,2.6146,2.6168,2.6221,2.614,2.6439,2.6446,2.6452,2.6482,2.6493,2.6502,0,0,0,0,0,2.5563,2.5652,2.565,2.5675,2.5811,2.5911,2.5928,2.5954,2.5925,2.597,2.601,2.6004,2.6201,2.6157,2.6182,2.6238,2.6436,2.6444,2.6451,2.6477,2.649,2.6502,0,0,0,0,0,0,2.5582,2.5663,2.5661,2.5778,2.5837,2.591,2.5967,2.5968,2.6037,2.6032,2.6061,2.6079,2.6186,2.6223,2.6172,2.6354,2.6315,2.6328,2.6326,2.6339,2.6349,2.6338,2.6148,0,0,0,0,0,2.56,2.5674,2.574,2.5837,2.5867,2.5912,2.5957,2.5971,2.6034,2.606,2.6108,2.617,2.6245,2.6295,2.6368,2.6487,2.6504,2.6538,2.6549,2.6557,2.6567,2.6632,2.6647,2.648,2.648,2.648,0,0,2.5637,2.569,2.5735,2.5842,2.589,2.5966,2.5933,2.6016,2.6072,2.6072,2.6176,2.6213,2.6284,2.6397,2.645,2.6432,2.6617,2.6567,2.6572,2.6579,2.6641,2.6657,2.6671,2.6486,2.6485,2.6484,0,0,2.5744,2.5792,2.5877,2.5925,2.5998,2.6027,2.6048,2.6121,2.6145,2.6249,2.625,2.6319,2.6449,2.6499,2.6541,2.6667,2.6664,2.669,2.6743,2.6806,2.6819,2.6831,2.6874,2.6889,2.67,2.6701,2.6701,0,2.5781,2.5895,2.5921,2.6003,2.6049,2.6052,2.6138,2.6184,2.6278,2.631,2.6288,2.645,2.6499,2.6623,2.6653,2.6688,2.6712,2.668,2.6815,2.6827,2.6838,2.688,2.6896,2.6703,2.6703,2.6703,2.6702,0,2.5937,2.6016,2.6076,2.6165,2.6218,2.6302,2.634,2.6391,2.6401,2.6433,2.6538,2.6596,2.6681,2.6712,2.6723,2.6837,2.6824,2.6808,2.6769,2.6856,2.6896,2.6912,2.6707,2.6706,2.6705,2.6704,0,0,2.6059,2.616,2.6182,2.6222,2.6302,2.6364,2.6448,2.6529,2.6572,2.6636,2.6707,2.6817,2.6802,2.6851,2.6867,2.6923,2.7016,2.69,2.6902,2.6919,2.7145,2.7155,2.7173,2.7015,2.7018,2.7021,2.7138,0,2.6173,2.6321,2.6346,2.6476,2.6548,2.6552,2.6625,2.6682,2.6714,2.6781,2.6817,2.6893,2.687,2.6898,2.6953,2.6993,2.7062,2.6985,2.708,2.7084,2.7061,2.7194,2.7205,2.7313,2.7154,2.7157,2.7159,0,2.6326,2.6393,2.6529,2.6598,2.663,2.6695,2.6771,2.6835,2.69,2.6919,2.6973,2.6983,2.707,2.7027,2.7147,2.7094,2.7135,2.7161,2.7165,2.7174,2.7125,2.7204,2.7348,2.7363,2.7183,2.7181,2.718,0,2.6399,2.6524,2.6621,2.6655,2.6739,2.6784,2.6821,2.6883,2.693,2.6998,2.7028,2.7105,2.7147,2.7206,2.7237,2.7203,2.7354,2.7314,2.7372,2.7371,2.7402,2.74,2.7552,2.7431,2.7431,2.7431,2.743,0,2.6523,2.6606,2.6655,2.6715,2.6808,2.6836,2.6927,2.6963,2.7018,2.7085,2.7094,2.7156,2.7193,2.7262,2.7286,2.7381,2.74,2.7418,2.7423,2.7416,2.7414,2.7442,2.7435,2.7435,2.7434,2.7433,2.7432,0,2.662,2.6657,2.6763,2.6833,2.6852,2.6918,2.6978,2.7036,2.7068,2.7152,2.7174,2.7223,2.7304,2.734,2.744,2.7457,2.7564,2.7565,2.7542,2.7543,2.7598,2.7592,2.7773,2.7798,2.7662,2.7663,2.7664,0,2.6696,2.6759,2.6836,2.6881,2.6919,2.6992,2.704,2.707,2.712,2.7198,2.7246,2.7327,2.7393,2.7521,2.7566,2.7643,2.7644,2.7703,2.7656,2.7646,2.7643,2.7638,2.7644,2.7711,2.7712,2.7713,2.7714,0,2.6826,2.684,2.6909,2.6983,2.704,2.7101,2.716,2.7196,2.7236,2.7291,2.7373,2.7424,2.7525,2.7605,2.7684,2.7722,2.7725,2.7729,2.7746,2.7738,2.7722,2.773,2.7563,2.7724,2.7723,2.7722,2.7722,2.7721,2.6913,2.697,2.7032,2.7108,2.7155,2.721,2.7268,2.7306,2.7375,2.7459,2.7473,2.756,2.7623,2.7729,2.777,2.7839,2.7825,2.785,2.7856,2.7861,2.7863,2.7712,2.7853,2.7853,2.7853,2.7853,2.7853,0,2.7042,2.7082,2.7152,2.7234,2.7293,2.729,2.7355,2.7405,2.7481,2.7539,2.7604,2.7697,2.7774,2.7826,2.7904,2.7949,2.7952,2.7968,2.7964,2.7973,2.7872,2.7849,2.7964,2.7964,2.7964,2.7964,2.7964,2.7964,2.7116,2.721,2.7232,2.735,2.739,2.7475,2.7512,2.7563,2.7609,2.7713,2.7777,2.7809,2.7865,2.7947,2.8017,2.803,2.8058,2.8074,2.8087,2.7992,2.798,2.7969,2.7947,2.8081,2.8081,2.8181,2.8182,2.8183]},{"header":{"parameterUnit":"m.s-1","parameterCategory":1,"la1":30.2991,"la2":30.254,"lo1":-89.0895,"lo2":-89.0444,"dy":0.0017,"dx":0.0017,"nx":28,"ny":28,"refTime":"2025-05-27T09:00:00:Z","depth":0,"parameterNumber":3,"parameterNumberName":"V-component_of_WINDS"},"data":[0,0,0,0,0,0,0,0,0,0,0,0,0,0,0,0,0,0,0,0,0,0,0,0,0,0,0,0,0,0,0,0,0,0,0,0,0,0,0,0,0,0,0,0,0,0,0,0,0,0,0,0,0,0,0,0,0,0,2.9346,2.9348,0,2.9502,2.9504,2.9505,2.9532,2.9531,2.953,2.9528,2.9686,2.9691,2.9696,0,0,0,0,0,0,0,0,0,0,0,0,0,2.9069,2.9074,2.9346,2.9348,2.935,2.9501,2.9504,2.9506,2.9532,2.9531,2.9529,2.9528,2.9684,2.969,2.9697,0,0,0,0,0,0,0,0,0,0,0,0,0,2.9204,2.9076,2.9346,2.9381,2.9386,2.9501,2.9504,2.9506,2.9533,2.9531,2.9529,2.9527,2.9682,2.9689,2.9697,2.9787,0,0,2.9722,2.9726,0,0,0,0,0,0,0,0,2.9196,2.9214,2.9374,2.9379,2.9385,2.9496,2.9464,2.96,2.9533,2.9477,2.9528,2.9526,2.9624,2.9636,2.967,2.9794,2.9801,2.9723,2.9728,2.9731,2.9734,0,0,0,0,0,0,0,2.9187,2.9207,2.9407,2.9376,2.9383,2.9389,2.9406,2.949,2.9559,2.9482,2.9484,2.9502,2.9626,2.9662,2.9674,2.9803,2.9723,2.973,2.9735,2.9738,3.0008,3.001,0,0,0,0,0,0,2.9171,2.9199,2.9403,2.9412,2.9284,2.9396,2.9415,2.9462,2.9559,2.9571,2.9504,2.9503,2.9649,2.9664,2.9679,2.979,2.9731,2.9739,2.9744,3.0006,3.0008,3.0011,0,0,0,0,0,0,2.9165,2.9189,2.9396,2.9306,2.9333,2.9402,2.9455,2.9466,2.9502,2.9575,2.9588,2.9528,2.9648,2.9668,2.976,2.9796,2.9743,2.975,3.0003,3.0007,3.001,3.0012,0,0,0,0,0,0,2.9157,2.9187,2.9222,2.9307,2.9338,2.9475,2.9458,2.947,2.9516,2.9516,2.9601,2.9613,2.9648,2.9748,2.9768,2.9806,2.9756,3.0,3.0005,3.0009,3.0009,3.0015,3.002,0,0,0,0,0,2.9147,2.9216,2.9223,2.9248,2.9383,2.9477,2.9494,2.9534,2.9519,2.9554,2.9602,2.961,2.9789,2.9757,2.978,2.9821,2.9998,3.0003,3.0008,3.0006,3.0014,3.002,0,0,0,0,0,0,2.9132,2.9228,2.9237,2.9336,2.9398,2.9481,2.9527,2.9541,2.9608,2.9606,2.9651,2.967,2.9759,2.98,2.9762,2.9912,2.9892,2.9902,2.9883,2.989,2.9896,2.9884,2.9763,0,0,0,0,0,2.9141,2.9209,2.9289,2.9368,2.9399,2.9458,2.95,2.9525,2.9591,2.9617,2.9671,2.9734,2.9805,2.985,2.9918,3.0015,3.0033,3.0055,3.006,3.0064,3.0072,3.0126,3.0136,3.0028,3.0028,3.0028,0,0,2.9158,2.9219,2.9259,2.9366,2.9418,2.9487,2.948,2.9553,2.9605,2.9628,2.9718,2.976,2.9834,2.9928,2.9972,2.9964,3.0106,3.0071,3.0074,3.008,3.0132,3.0142,3.0151,3.0031,3.0031,3.003,0,0,2.9226,2.9279,2.9351,2.9402,2.948,2.9519,2.9536,2.9618,2.9646,2.9738,2.9757,2.9818,2.9939,2.999,3.0032,3.0119,3.0129,3.014,3.0169,3.0221,3.0229,3.0237,3.0268,3.0278,3.0148,3.0148,3.0148,0,2.9237,2.9344,2.9385,2.9459,2.9505,2.953,2.9603,2.965,2.9746,2.9777,2.9767,2.9919,2.997,3.0076,3.0098,3.0131,3.0151,3.013,3.0225,3.0233,3.0241,3.027,3.0282,3.0149,3.0148,3.0148,3.0148,0,2.9354,2.9427,2.9475,2.9568,2.962,2.9692,2.9745,2.9792,2.9813,2.9852,2.9944,3.0007,3.0089,3.0116,3.0137,3.0226,3.0218,3.0216,3.0196,3.0251,3.028,3.0291,3.015,3.0149,3.0149,3.0149,0,0,2.9416,2.9532,2.9549,2.9591,2.9679,2.9736,2.9809,2.989,2.9929,2.9994,3.0056,3.0158,3.0156,3.0204,3.023,3.0276,3.034,3.0268,3.027,3.0279,3.0441,3.0442,3.0454,3.0348,3.035,3.0352,3.0435,0,2.9493,2.9626,2.9666,2.9776,2.9844,2.9869,2.9933,2.9993,3.0032,3.0094,3.0137,3.0208,3.0201,3.023,3.0276,3.0322,3.0373,3.0317,3.0405,3.0408,3.0385,3.0469,3.047,3.0545,3.0446,3.0448,3.0449,0,2.9601,2.9669,2.9787,2.9866,2.9896,2.9953,3.003,3.009,3.0158,3.0183,3.0236,3.0259,3.0336,3.0313,3.0418,3.0379,3.0417,3.0446,3.045,3.0459,3.0431,3.048,3.057,3.0581,3.0468,3.0466,3.0465,0,2.9634,2.9755,2.9841,2.9877,2.9971,3.001,3.0052,3.0119,3.0164,3.0232,3.0262,3.0336,3.0377,3.0434,3.0476,3.0455,3.0578,3.0558,3.06,3.0599,3.0624,3.0622,3.0721,3.065,3.065,3.0649,3.0649,0,2.9716,2.9787,2.9857,2.991,2.9989,3.0034,3.0112,3.0154,3.0214,3.0274,3.03,3.0357,3.0409,3.0472,3.0506,3.0588,3.0606,3.0628,3.0636,3.0625,3.0622,3.0651,3.0646,3.0653,3.0652,3.0651,3.0651,0,2.9766,2.9816,2.9911,2.9993,3.0015,3.0071,3.0141,3.0192,3.0232,3.0309,3.0329,3.0392,3.0468,3.0515,3.0611,3.0634,3.0724,3.073,3.0701,3.0704,3.0743,3.0738,3.0864,3.0882,3.0798,3.0799,3.08,0,2.9814,2.9869,2.9958,3.0001,3.0042,3.0111,3.0159,3.0205,3.0253,3.0335,3.0377,3.0454,3.0519,3.0638,3.0692,3.0765,3.0773,3.0812,3.0784,3.0772,3.0773,3.0769,3.0774,3.0816,3.0817,3.0817,3.0818,0,2.9895,2.9917,2.9985,3.0061,3.0117,3.0179,3.024,3.0274,3.0331,3.0383,3.0461,3.0511,3.061,3.0686,3.0764,3.0806,3.0821,3.0826,3.084,3.0829,3.081,3.082,3.0712,3.0823,3.0822,3.0822,3.0822,3.0822,2.9946,2.9996,3.0066,3.014,3.0191,3.0249,3.0301,3.0348,3.0414,3.0499,3.0522,3.0603,3.067,3.0777,3.082,3.0884,3.0879,3.0898,3.0903,3.0907,3.0907,3.08,3.0898,3.0898,3.0898,3.0898,3.0898,0,3.0027,3.0074,3.0141,3.0228,3.0286,3.0296,3.0365,3.0413,3.0485,3.0546,3.0609,3.0699,3.0773,3.0832,3.0909,3.0948,3.0957,3.0967,3.0964,3.0973,3.0908,3.0889,3.0958,3.0958,3.0958,3.0958,3.0958,3.0958,3.0076,3.0162,3.0192,3.0303,3.0349,3.0429,3.0468,3.052,3.057,3.0669,3.0731,3.077,3.083,3.0911,3.0979,3.0995,3.1021,3.1029,3.1046,3.0984,3.0978,3.0971,3.0953,3.1035,3.1035,3.1106,3.1106,3.1107]}]]